Tracking 34719 objects as of 12-Jul-2026
HD Live streaming from Space Station
objects crossing your sky now

STARLINK-37803

Track STARLINK-37803 now!
10-day predictions
STARLINK-37803 is classified as:


NORAD ID: 69319
Int'l Code: 2026-119Z
Perigee: 471.8 km
Apogee: 473.6 km
Inclination: 97.3 °
Period: 93.9 minutes
Semi major axis: 6843 km
RCS: Unknown
Launch date: May 30, 2026
Source: United States (US)
Launch site: AIR FORCE WESTERN TEST RANGE (AFWTR)
Your satellite tracking list
Your tracking list is empty




NASA's NSSDC Master Catalog

Two Line Element Set (TLE):
1 69319U 26119Z   26193.58335648  .00006430  00000-0  20131-3 0  9993
2 69319  97.2850 219.4009 0001286  91.0122 290.1855 15.33446645  6016
Source of the keplerian elements: AFSPC